sat.trackr.live / text

‹ back to catalog

PRSS-1

NORAD 43530 · 2018-056B

PAYLOAD ACTIVE UNKNOWN

§ Identity

Operator
Country
PAKI
Launch date
2018-07-09
Launch site
JSC
Launch vehicle
Mass (kg)
RCS (m²)

External: N2YO · Heavens-Above · Gunter

§ Orbital elements

Epoch: 2026-05-25T03:58:49.643904Z

Period
97.17 min
Inclination
97.7824°
Eccentricity
0.0001849
Mean motion
14.81947020 rev/d
Perigee alt
621.9 km
Apogee alt
624.5 km
Semi-major
7,001.3 km
B*
1.1749e-4
RAAN
213.6725°
Arg perigee
87.9483°
Mean anomaly
272.1942°
Rev number
42,502

§ Raw data

PRSS-11 43530U 18056B   26145.16585236  .00000880  00000+0  11749-3 0  99992 43530  97.7824 213.6725 0001849  87.9483 272.1942 14.81947020425027

JSON: /api/v1/satellites/43530 · /tle

For live sub-satellite position, see the globe view (requires WebGL).

§ Visibility from observer

Set your observer location to see the next 7 days of passes ≥ 10°. The values pass through the URL so the page stays shareable.

No JS? Fill the form by hand. The geolocation button needs JavaScript.

§ Radio — SatNOGS DB

ModeDescriptionDownlinkUplink
FM S-band telemetry 2.275 GHz

1 transmitter · refreshed weekly from db.satnogs.org